User: anonymous   Login
Location: Corralito
(10.2667°N, 66.9500°W)
Time: 12:12:56
(UTC+00:00)
Language:

Okean 3 - Orbit

View from above orbital plane
View from above orbital plane
View from above satellite
View from above satellite

Ground track
Ground track

The orbit data is extracted from the following two-line orbital elements,

1 21397U 91039A   24107.98490670  .00007853  00000-0  66666-3 0  9997
2 21397  82.5169 283.6190 0016977 152.7147 207.4971 14.97671332782315
Epoch (UTC): 16 April 2024 23:38:15
Eccentricity: 0.0016977
inclination: 82.5169°
perigee height: 562 km
apogee height: 586 km
right ascension of ascending node: 283.6190°
argument of perigee: 152.7147°
revolutions per day: 14.97671332
mean anomaly at epoch: 207.4971°
orbit number at epoch: 78231

The dashed part of the orbit path shows where the satellite is in the earth's shadow,  

DLR